TimeEST,TemperatureF,Dew PointF,Humidity,Sea Level PressureIn,VisibilityMPH,Wind Direction,Wind SpeedMPH,Gust SpeedMPH,PrecipitationIn,Events,Conditions,WindDirDegrees,DateUTC
12:53 AM,66.0,64.0,93,30.18,3.0,Calm,Calm,-,N/A,,Scattered Clouds,0,2013-01-06 05:53:00
1:53 AM,66.0,64.0,93,30.16,3.0,Calm,Calm,-,N/A,,Partly Cloudy,0,2013-01-06 06:53:00
2:53 AM,64.0,63.0,96,30.14,3.0,Calm,Calm,-,N/A,,Scattered Clouds,0,2013-01-06 07:53:00
3:53 AM,66.0,64.0,93,30.13,10.0,Calm,Calm,-,N/A,,Scattered Clouds,0,2013-01-06 08:53:00
4:53 AM,64.9,64.0,97,30.12,10.0,Calm,Calm,-,N/A,,Mostly Cloudy,0,2013-01-06 09:53:00
5:53 AM,66.0,64.9,96,30.13,10.0,Calm,Calm,-,N/A,,Scattered Clouds,0,2013-01-06 10:53:00
6:53 AM,66.9,64.9,93,30.13,10.0,Calm,Calm,-,N/A,,Mostly Cloudy,0,2013-01-06 11:53:00
7:07 AM,66.2,64.4,94,30.14,10.0,Calm,Calm,-,N/A,,Mostly Cloudy,0,2013-01-06 12:07:00
7:53 AM,68.0,66.0,93,30.16,10.0,Calm,Calm,-,N/A,,Mostly Cloudy,0,2013-01-06 12:53:00
8:53 AM,72.0,70.0,93,30.16,10.0,Calm,Calm,-,N/A,,Mostly Cloudy,0,2013-01-06 13:53:00
9:12 AM,75.2,69.8,83,30.17,10.0,Calm,Calm,-,N/A,,Mostly Cloudy,0,2013-01-06 14:12:00
9:53 AM,79.0,70.0,74,30.17,10.0,SSE,11.5,-,N/A,,Mostly Cloudy,150,2013-01-06 14:53:00
10:53 AM,80.1,68.0,67,30.15,10.0,SSE,15.0,-,N/A,,Scattered Clouds,150,2013-01-06 15:53:00
11:53 AM,81.0,68.0,65,30.13,10.0,SSE,13.8,20.7,N/A,,Scattered Clouds,150,2013-01-06 16:53:00
12:53 PM,81.0,68.0,65,30.10,10.0,SSE,15.0,-,N/A,,Scattered Clouds,160,2013-01-06 17:53:00
1:53 PM,82.0,66.9,60,30.08,10.0,SSE,11.5,-,N/A,,Scattered Clouds,160,2013-01-06 18:53:00
2:53 PM,81.0,68.0,65,30.07,10.0,SSE,12.7,-,N/A,,Scattered Clouds,150,2013-01-06 19:53:00
3:53 PM,79.0,68.0,69,30.06,10.0,SSE,13.8,-,N/A,,Mostly Cloudy,160,2013-01-06 20:53:00
4:53 PM,78.1,69.1,74,30.06,10.0,SSE,13.8,19.6,N/A,,Mostly Cloudy,150,2013-01-06 21:53:00
5:53 PM,75.9,69.1,79,30.07,10.0,SSE,9.2,-,N/A,,Mostly Cloudy,150,2013-01-06 22:53:00
6:53 PM,75.9,69.1,79,30.09,10.0,South,4.6,-,N/A,,Mostly Cloudy,170,2013-01-06 23:53:00
7:53 PM,75.0,69.1,82,30.10,10.0,South,3.5,-,N/A,,Mostly Cloudy,180,2013-01-07 00:53:00
8:53 PM,73.0,68.0,84,30.11,10.0,South,3.5,-,N/A,,Mostly Cloudy,180,2013-01-07 01:53:00
9:53 PM,73.0,68.0,84,30.12,10.0,Calm,Calm,-,N/A,,Mostly Cloudy,0,2013-01-07 02:53:00
10:53 PM,72.0,68.0,87,30.12,10.0,SW,3.5,-,N/A,,Mostly Cloudy,230,2013-01-07 03:53:00
11:53 PM,72.0,68.0,87,30.12,10.0,West,4.6,-,N/A,,Mostly Cloudy,270,2013-01-07 04:53:00